Regional Weather Roundup
Issued by NWS

Home | Current Version | Previous Version | Text Only | Print | Product List | Glossary Off
Versions: 1 2 3 4 5 6 7 8 9 10 11 12 13 14 15 16 17 18 19 20 21 22 23 24 25 26 27 28 29 30 31 32 33 34 35 36 37 38 39 40 41 42 43 44 45 46 47 48 49 50

564
ASUS43 KLSX 291710
RWRMO

WEATHER SUMMARY FOR MISSOURI
NATIONAL WEATHER SERVICE SPRINGFIELD MO
1200 PM CDT SUN MAY 29 2016

NOTE: "FAIR" INDICATES FEW OR NO CLOUDS BELOW 12,000 FEET WITH NO
       SIGNIFICANT WEATHER AND/OR OBSTRUCTIONS TO VISIBILITY.
       CURRENT SKY AND/OR WEATHER CONDITIONS ARE NOT AVAILABLE FOR
       CHILLICOTHE AND FARMINGTON.

MOZ001>031-035>038-043-044-053-054-291800-
...NORTHERN AND WESTERN MISSOURI...

CITY           SKY/WX    TMP DP  RH WIND       PRES   REMARKS
KANSAS CTY INT MOSUNNY   80  62  54 VRB5      30.13S
KANSAS C DTWN  SUNNY     82  59  45 VRB3      30.11S
LEE`S SUMMIT   SUNNY     82  60  47 SW5       30.12S
ST JOSEPH      SUNNY     80  60  50 CALM      30.11S
CHILLICOTHE      N/A     81  63  54 VRB6      30.12S
KIRKSVILLE     SUNNY     78  61  55 NW12      30.12R

$$
MOZ066>068-077>081-088>096-101>105-291800-
...SOUTHWEST MISSOURI...

CITY           SKY/WX    TMP DP  RH WIND       PRES   REMARKS
SPRINGFIELD    MOSUNNY   81  63  54 W9        30.16R
JOPLIN         MOSUNNY   83  66  56 VRB7      30.15S
BRANSON        CLOUDY    79  64  61 NW6       30.18R

$$
MOZ032>034-039>042-045>050-055>058-069>072-291800-
...CENTRAL MISSOURI...

CITY           SKY/WX    TMP DP  RH WIND       PRES   REMARKS
COLUMBIA       SUNNY     81  60  48 SW7       30.13S
JEFFERSON CITY SUNNY     82  58  43 W5        30.11S
ROLLA          MOSUNNY   78  62  57 W7        30.13S
SEDALIA        SUNNY     83  59  44 W8        30.13F
WHITEMAN AFB   SUNNY     82  60  47 VRB6      30.11F
WARRENSBURG    SUNNY     81  59  47 SW5       30.12S

$$
MOZ051-052-059>065-291800-
...EAST CENTRAL MISSOURI...

CITY           SKY/WX    TMP DP  RH WIND       PRES   REMARKS
ST LOUIS INTL  MOSUNNY   85  58  39 W8        30.12R
SPIRIT OF STL  MOSUNNY   83  61  47 W6        30.10S
ST CHARLES     SUNNY     82  64  54 NW8       30.10R

$$
MOZ072>076-082>087-097>100-106>115-291800-
...SOUTH CENTRAL AND SOUTHEAST MISSOURI...

CITY           SKY/WX    TMP DP  RH WIND       PRES   REMARKS
CAPE GIRARDEAU MOSUNNY   81  66  60 VRB5      30.10F
FARMINGTON     MOSUNNY   80  63  55 NW7       30.14S
POPLAR BLUFF   MOSUNNY   82  66  58 E3        30.11S
WEST PLAINS    CLOUDY    80  62  54 VRB5      30.16S

$$




USA.gov is the U.S. government's official web portal to all federal, state and local government web resources and services.